EW8589 Weather Reports


time (UTC)temp
C
wind
direction
speed
KPH
gust
KPH
rain 1hr
cm
rain 24hr
cm
rain mn
cm
humidity
%
barometer
mb
20260510204004 18 229 9.7 20.9 0.00 0.23 0.00 60 1011.7
20260510202504 20 256 3.2 16.1 0.00 0.30 0.00 52 1011.4
20260510202007 20 289 4.8 16.1 0.00 0.30 0.00 51 1011.3
20260510201514 20 278 4.8 17.7 0.00 0.30 0.00 50 1011.1
20260510201009 20 309 4.8 17.7 0.00 0.33 0.00 48 1011.1
20260510200509 21 285 8.0 22.5 0.00 0.36 0.00 48 1011.0
20260510200004 21 180 4.8 22.5 0.00 0.36 0.00 48 1011.1
20260510195001 20 197 3.2 9.7 0.00 0.43 0.00 54 1011.1
20260510194504 20 139 1.6 14.5 0.00 0.46 0.00 55 1011.1
20260510194006 20 274 3.2 16.1 0.00 0.46 0.00 53 1011.1
20260510193503 20 28 3.2 16.1 0.00 0.48 0.00 55 1011.1
20260510192008 20 102 3.2 8.0 0.00 0.53 0.00 57 1011.2
20260510191008 20 311 1.6 12.9 0.00 0.53 0.00 57 1011.2
20260510190506 20 121 1.6 12.9 0.00 0.53 0.00 59 1011.2
20260510190032 20 190 3.2 11.3 0.00 0.53 0.00 58 1011.2
20260510185512 20 5 1.6 6.4 0.00 0.53 0.00 58 1011.3
20260510185008 20 271 1.6 9.7 0.00 0.53 0.00 59 1011.3
20260510184505 20 281 4.8 12.9 0.00 0.53 0.00 60 1011.2
20260510184005 20 136 0.0 12.9 0.00 0.53 0.00 63 1011.3
20260510183506 21 141 1.6 12.9 0.00 0.53 0.00 60 1011.3
20260510183007 21 253 4.8 12.9 0.00 0.53 0.00 59 1011.3
20260510182506 21 25 3.2 9.7 0.00 0.53 0.00 61 1011.4
20260510181511 20 193 8.0 16.1 0.00 0.53 0.00 68 1011.1
20260510180508 20 156 4.8 12.9 0.00 0.53 0.00 69 1011.2
20260510180018 19 149 0.0 8.0 0.00 0.53 0.00 73 1011.2
20260510175508 19 78 3.2 8.0 0.00 0.53 0.00 71 1011.2
20260510175014 18 94 3.2 8.0 0.00 0.53 0.00 72 1011.1
20260510174521 18 253 1.6 8.0 0.00 0.53 0.00 72 1011.2
20260510174010 18 327 1.6 8.0 0.00 0.53 0.00 73 1011.3
20260510173505 18 166 1.6 6.4 0.00 0.53 0.00 72 1011.4
20260510173006 18 82 3.2 9.7 0.00 0.53 0.00 73 1011.3
20260510172503 18 166 3.2 9.7 0.00 0.53 0.00 72 1011.3
20260510172004 19 254 3.2 14.5 0.00 0.53 0.00 72 1011.3
20260510171510 19 298 4.8 11.3 0.00 0.53 0.00 70 1011.3
20260510171006 19 296 3.2 11.3 0.00 0.56 0.00 71 1011.4
20260510170015 19 119 1.6 9.7 0.00 0.56 0.00 72 1011.4
20260510165511 19 296 3.2 9.7 0.00 0.56 0.00 70 1011.4
20260510165006 19 184 4.8 12.9 0.00 0.56 0.00 70 1011.5
20260510164520 19 126 3.2 12.9 0.00 0.56 0.00 70 1011.7
20260510164009 18 142 3.2 12.9 0.00 0.56 0.00 73 1011.7
20260510163507 18 184 3.2 11.3 0.00 0.58 0.00 71 1011.7
20260510163023 19 182 4.8 11.3 0.00 0.58 0.00 74 1011.7
20260510162510 18 42 1.6 9.7 0.00 0.58 0.00 72 1011.8
20260510161512 19 279 1.6 9.7 0.00 0.61 0.00 75 1011.8
20260510161006 18 76 1.6 9.7 0.00 0.61 0.00 76 1011.8
20260510160504 18 327 1.6 9.7 0.00 0.61 0.00 72 1011.9
20260510160012 18 85 1.6 12.9 0.00 0.61 0.00 74 1012.0
20260510155513 17 120 4.8 12.9 0.00 0.61 0.00 76 1012.0
20260510155007 17 173 3.2 11.3 0.00 0.61 0.00 75 1012.1
20260510154514 17 214 3.2 11.3 0.00 0.61 0.00 74 1012.2
20260510154010 17 5 3.2 11.3 0.00 0.61 0.00 76 1012.2
20260510153508 17 130 1.6 6.4 0.00 0.61 0.00 79 1012.3
20260510153038 16 194 1.6 11.3 0.00 0.61 0.00 78 1012.4
20260510152510 16 340 1.6 11.3 0.00 0.61 0.00 79 1012.4
20260510152011 16 61 1.6 9.7 0.00 0.61 0.00 80 1012.4
20260510151523 16 13 1.6 14.5 0.00 0.61 0.00 77 1012.5
20260510151003 16 169 3.2 14.5 0.00 0.61 0.00 80 1012.6
20260510150011 16 22 1.6 11.3 0.00 0.61 0.00 83 1012.5
20260510145506 15 27 3.2 9.7 0.00 0.61 0.00 81 1012.5
20260510145011 15 133 0.0 9.7 0.00 0.61 0.00 83 1012.4
20260510144529 15 152 1.6 9.7 0.00 0.61 0.00 84 1012.4
20260510144007 15 122 3.2 9.7 0.00 0.61 0.00 85 1012.4
20260510143508 14 267 3.2 9.7 0.00 0.61 0.00 87 1012.5
20260510143017 14 148 1.6 8.0 0.00 0.61 0.00 88 1012.5
20260510142516 13 165 4.8 9.7 0.00 0.61 0.00 89 1012.6
20260510142009 13 335 1.6 9.7 0.00 0.61 0.00 89 1012.7
20260510141522 13 201 3.2 8.0 0.00 0.61 0.00 89 1012.7
20260510141011 13 36 3.2 6.4 0.00 0.61 0.00 90 1012.6
20260510140510 12 92 1.6 6.4 0.00 0.61 0.00 91 1012.6
20260510140024 12 138 0.0 6.4 0.00 0.61 0.00 92 1012.6
20260510134513 12 159 3.2 6.4 0.00 0.61 0.00 93 1012.5
20260510134009 12 116 0.0 4.8 0.00 0.61 0.00 93 1012.4
20260510133507 12 288 1.6 6.4 0.00 0.61 0.00 94 1012.4
20260510133016 11 84 0.0 6.4 0.00 0.64 0.00 94 1012.5
20260510132506 11 163 0.0 6.4 0.00 0.64 0.00 94 1012.4
20260510132009 11 161 1.6 4.8 0.00 0.64 0.00 95 1012.5
20260510131522 11 123 0.0 4.8 0.00 0.64 0.00 95 1012.6
20260510131013 11 144 0.0 3.2 0.00 0.64 0.00 95 1012.5
20260510130509 11 28 0.0 3.2 0.00 0.64 0.00 95 1012.6
20260510130024 11 129 1.6 3.2 0.00 0.64 0.00 96 1012.4
20260510125509 11 172 0.0 3.2 0.00 0.64 0.00 96 1012.4
20260510125011 11 96 0.0 3.2 0.00 0.64 0.00 96 1012.3
20260510124525 11 118 0.0 3.2 0.00 0.64 0.00 95 1012.3
20260510123014 11 218 1.6 3.2 0.00 0.64 0.00 97 1012.1
20260510122508 11 67 0.0 3.2 0.00 0.64 0.00 97 1012.1
20260510122007 11 52 0.0 3.2 0.00 0.64 0.00 97 1012.2
20260510121518 11 123 0.0 3.2 0.00 0.64 0.00 97 1012.2
20260510121009 11 179 0.0 3.2 0.00 0.64 0.00 97 1012.3
20260510120507 10 145 0.0 3.2 0.00 0.64 0.00 97 1012.3
20260510120024 11 119 0.0 4.8 0.00 0.64 0.00 97 1012.3
20260510115512 11 90 1.6 4.8 0.00 0.64 0.00 97 1012.2
20260510115010 10 50 1.6 4.8 0.00 0.66 0.00 97 1012.2
20260510114526 10 212 0.0 3.2 0.00 0.66 0.00 97 1012.1
20260510114011 10 133 0.0 3.2 0.00 0.66 0.00 97 1012.0
20260510113507 10 130 0.0 3.2 0.00 0.66 0.00 97 1012.0
20260510113015 10 151 0.0 3.2 0.00 0.66 0.00 97 1012.0
20260510112506 10 159 0.0 3.2 0.00 0.66 0.00 97 1012.0
20260510112008 10 174 0.0 3.2 0.00 0.66 0.00 97 1012.0
20260510111529 10 198 0.0 3.2 0.00 0.69 0.00 98 1011.9
20260510111013 10 223 0.0 3.2 0.00 0.69 0.00 98 1012.0
20260510110506 10 70 0.0 3.2 0.00 0.69 0.00 98 1011.8
20260510110025 10 182 0.0 3.2 0.00 0.71 0.00 98 1011.9
20260510105509 10 328 0.0 3.2 0.00 0.71 0.00 98 1011.7
20260510105008 10 286 0.0 3.2 0.00 0.71 0.00 98 1011.7
20260510104522 10 295 0.0 3.2 0.00 0.71 0.00 98 1011.6
20260510104008 10 222 0.0 3.2 0.00 0.74 0.00 98 1011.7
20260510103507 10 329 0.0 4.8 0.00 0.74 0.00 98 1011.6
20260510102507 10 304 1.6 6.4 0.00 0.76 0.00 98 1011.5
20260510102009 10 128 1.6 6.4 0.00 0.76 0.00 98 1011.4
20260510101514 10 342 0.0 6.4 0.00 0.79 0.00 98 1011.2
20260510100509 10 154 1.6 4.8 0.00 0.79 0.00 98 1011.2
20260510100002 10 143 0.0 4.8 0.00 0.79 0.00 98 1011.2
20260510095504 10 239 0.0 8.0 0.00 0.79 0.00 98 1011.1
20260510095007 9 162 1.6 8.0 0.00 0.81 0.00 98 1010.8
20260510094505 9 121 1.6 3.2 0.00 0.81 0.00 98 1010.9
20260510094003 9 53 1.6 4.8 0.00 0.84 0.00 98 1010.9
20260510093506 9 80 1.6 4.8 0.00 0.84 0.00 98 1011.1
20260510093008 9 181 1.6 3.2 0.00 0.86 0.00 98 1011.2
20260510092506 9 146 1.6 3.2 0.00 0.86 0.00 98 1011.2
20260510092006 9 127 0.0 3.2 0.00 0.86 0.00 98 1011.1
20260510091510 9 222 0.0 4.8 0.00 0.86 0.00 98 1011.4
20260510091006 9 139 1.6 6.4 0.00 0.89 0.00 98 1011.3
20260510090508 9 210 0.0 6.4 0.00 0.89 0.00 98 1011.4
20260510090016 9 143 3.2 6.4 0.00 0.91 0.00 98 1011.3
20260510085511 9 161 1.6 4.8 0.00 0.94 0.00 98 1011.4
20260510085007 9 181 0.0 4.8 0.00 0.94 0.00 98 1011.4
20260510084508 9 142 0.0 4.8 0.00 0.97 0.00 97 1011.4
20260510084004 9 96 0.0 3.2 0.00 0.97 0.00 98 1011.5
20260510083503 9 74 0.0 3.2 0.00 0.99 0.00 98 1011.6
20260510083007 9 74 0.0 3.2 0.00 0.99 0.00 97 1011.5
20260510082504 9 98 0.0 3.2 0.00 0.99 0.00 98 1011.5
20260510082006 9 98 0.0 3.2 0.00 0.99 0.00 98 1011.4
20260510081517 9 94 0.0 3.2 0.00 0.99 0.00 98 1011.4
20260510081006 9 95 0.0 3.2 0.00 0.99 0.00 98 1011.4
20260510080505 9 56 0.0 3.2 0.00 0.99 0.00 97 1011.5
20260510080014 9 31 0.0 3.2 0.00 0.99 0.00 98 1011.6
20260510075506 9 31 0.0 3.2 0.00 0.99 0.00 97 1011.5
20260510075009 9 84 0.0 3.2 0.00 0.99 0.00 97 1011.5
20260510074517 9 115 0.0 3.2 0.00 0.99 0.00 97 1011.4
20260510074009 9 112 0.0 0.0 0.00 0.99 0.00 97 1011.4
20260510073510 9 112 0.0 3.2 0.00 0.99 0.00 97 1011.3
20260510072504 9 94 0.0 3.2 0.00 0.99 0.00 98 1011.2
20260510072005 9 173 0.0 4.8 0.00 0.99 0.00 97 1011.2
20260510071506 9 187 0.0 4.8 0.00 0.99 0.00 97 1011.2
20260510071004 9 167 0.0 3.2 0.00 0.99 0.00 97 1011.2
20260510070506 9 108 0.0 3.2 0.00 0.99 0.00 97 1011.2
20260510070010 9 108 0.0 3.2 0.00 0.99 0.00 97 1011.2
20260510065510 9 103 0.0 1.6 0.00 0.99 0.00 97 1011.1
20260510065011 9 66 0.0 0.0 0.00 0.99 0.00 97 1011.1
20260510064515 9 66 0.0 0.0 0.00 0.99 0.00 97 1011.4
20260510064007 9 66 0.0 0.0 0.00 0.99 0.00 97 1011.2
20260510063507 9 66 0.0 0.0 0.00 0.99 0.00 97 1011.2
20260510063022 9 66 0.0 0.0 0.00 0.99 0.00 97 1011.2
20260510062511 8 66 0.0 0.0 0.00 0.99 0.00 97 1011.2
20260510062012 8 66 0.0 3.2 0.00 0.99 0.00 97 1011.2
20260510061509 8 66 0.0 3.2 0.00 0.99 0.00 97 1011.0
20260510061004 9 66 0.0 1.6 0.00 0.99 0.00 97 1010.9
20260510060505 9 66 0.0 3.2 0.00 0.99 0.00 97 1011.0
20260510060007 9 66 0.0 3.2 0.00 0.99 0.00 97 1011.0
20260510055505 9 66 0.0 3.2 0.00 0.99 0.00 97 1010.8
20260510055008 8 101 0.0 3.2 0.00 0.99 0.00 97 1010.9
20260510054008 9 101 0.0 3.2 0.00 0.99 0.00 97 1010.9
20260510053507 9 101 0.0 3.2 0.00 0.99 0.00 97 1010.8
20260510053017 9 99 0.0 3.2 0.00 0.99 0.00 97 1010.9
20260510052509 9 101 0.0 3.2 0.00 0.99 0.00 97 1010.9
20260510052009 9 56 0.0 3.2 0.00 0.99 0.00 97 1010.9
20260510051525 10 99 0.0 3.2 0.00 0.99 0.00 97 1011.1
20260510051008 10 75 0.0 3.2 0.00 0.99 0.00 97 1011.1
20260510050502 10 69 0.0 3.2 0.00 0.99 0.00 97 1011.2
20260510045505 10 99 0.0 3.2 0.00 0.99 0.00 97 1011.2
20260510045007 10 90 0.0 3.2 0.00 0.99 0.00 97 1011.2
20260510044507 10 123 0.0 3.2 0.00 0.99 0.00 97 1011.2
20260510043508 10 111 0.0 3.2 0.00 0.99 0.00 97 1010.9
20260510043013 10 111 0.0 3.2 0.00 0.99 0.00 97 1010.8
20260510042510 10 111 0.0 3.2 0.00 0.99 0.00 97 1010.9
20260510042009 10 111 0.0 3.2 0.00 0.99 0.00 97 1011.1
20260510041517 10 111 0.0 3.2 0.00 0.99 0.00 97 1011.0
20260510041013 10 111 0.0 3.2 0.00 0.99 0.00 97 1011.1
20260510040509 10 111 0.0 0.0 0.00 0.99 0.00 97 1011.2
20260510040026 10 111 0.0 0.0 0.00 0.99 0.00 97 1011.4
20260510035508 10 111 0.0 3.2 0.00 0.99 0.99 97 1011.4
20260510035005 10 111 0.0 3.2 0.00 0.99 0.99 97 1011.1
20260510034507 10 111 0.0 3.2 0.00 0.99 0.99 97 1011.1
20260510034006 10 111 0.0 3.2 0.00 0.99 0.99 97 1011.1
20260510033512 10 111 0.0 3.2 0.00 0.99 0.99 97 1011.0
20260510033012 10 90 0.0 3.2 0.00 0.99 0.99 97 1011.1
20260510032508 10 88 0.0 3.2 0.00 0.99 0.99 97 1011.1
20260510032009 10 88 0.0 3.2 0.00 0.99 0.99 97 1011.3
20260510031515 10 88 0.0 3.2 0.00 0.99 0.99 97 1011.3
20260510031007 10 88 0.0 3.2 0.00 0.99 0.99 97 1011.1
20260510030506 10 88 0.0 3.2 0.00 0.99 0.99 97 1010.9
20260510030034 10 157 0.0 0.0 0.00 0.99 0.99 97 1011.0
20260510025511 10 157 0.0 0.0 0.00 0.99 0.99 97 1011.0
20260510025008 10 157 0.0 0.0 0.00 0.99 0.99 97 1010.9
20260510024533 10 157 0.0 0.0 0.00 0.99 0.99 97 1010.9
20260510024011 10 157 0.0 0.0 0.00 0.99 0.99 97 1010.9
20260510023505 10 157 0.0 0.0 0.00 0.99 0.99 97 1010.9
20260510023007 10 157 0.0 0.0 0.00 0.99 0.99 97 1010.9
20260510022506 10 157 0.0 0.0 0.00 0.99 0.99 97 1011.0
20260510022010 10 157 0.0 0.0 0.00 0.99 0.99 97 1010.9
20260510021517 10 157 0.0 0.0 0.00 0.99 0.99 97 1010.9
20260510021007 10 157 0.0 0.0 0.00 0.99 0.99 97 1010.9
20260510020507 10 157 0.0 4.8 0.00 0.99 0.99 97 1011.0
20260510020020 10 157 0.0 4.8 0.00 0.99 0.99 97 1011.2
20260510015512 10 53 0.0 3.2 0.00 0.99 0.99 97 1011.2
20260510015012 10 53 0.0 0.0 0.00 0.99 0.99 97 1011.3
20260510014010 10 53 0.0 3.2 0.00 0.99 0.99 97 1011.5
20260510013511 10 53 0.0 3.2 0.00 0.99 0.99 97 1011.5
20260510013026 10 53 0.0 1.6 0.00 0.99 0.99 97 1011.5
20260510012506 10 53 0.0 0.0 0.00 0.99 0.99 97 1011.5
20260510012006 10 53 0.0 0.0 0.00 0.99 0.99 97 1011.3
20260510011514 10 53 0.0 3.2 0.00 0.99 0.99 97 1011.3
20260510010506 10 53 0.0 3.2 0.00 0.99 0.99 97 1011.1
20260510010019 10 53 0.0 3.2 0.00 0.99 0.99 97 1011.0
20260510005511 10 5 0.0 3.2 0.00 0.99 0.99 97 1010.9
20260510005009 10 5 0.0 3.2 0.00 0.99 0.99 97 1010.9
20260510004004 10 332 0.0 3.2 0.00 0.99 0.99 97 1010.9
20260510003503 10 280 0.0 3.2 0.00 0.99 0.99 97 1010.9
20260510003004 10 130 0.0 3.2 0.00 0.99 0.99 97 1010.8
20260510002506 10 78 0.0 3.2 0.00 0.99 0.99 97 1010.7
20260510002014 10 276 0.0 3.2 0.00 0.99 0.99 97 1010.7
20260510001507 10 173 0.0 3.2 0.00 0.99 0.99 97 1010.6
20260510001012 10 159 0.0 3.2 0.00 0.99 0.99 97 1010.6
20260510000507 10 159 0.0 3.2 0.00 0.99 0.99 97 1010.5
20260510000016 10 163 0.0 3.2 0.00 0.99 0.99 97 1010.6
20260509235507 10 136 0.0 3.2 0.00 0.99 0.99 97 1010.6
20260509235013 10 333 0.0 3.2 0.00 0.99 0.99 97 1010.6
20260509234011 9 202 0.0 6.4 0.00 0.99 0.99 97 1010.6
20260509233510 9 121 1.6 6.4 0.00 0.99 0.99 97 1010.6
20260509232504 9 184 1.6 11.3 0.00 0.99 0.99 97 1010.7
20260509232004 9 205 3.2 8.0 0.00 0.99 0.99 96 1010.6
20260509231506 9 137 3.2 11.3 0.03 0.99 0.99 96 1010.6
20260509231007 9 162 1.6 11.3 0.03 0.99 0.99 96 1010.6
20260509230508 9 132 0.0 3.2 0.03 0.99 0.99 96 1010.7
20260509230026 9 55 1.6 6.4 0.05 0.99 0.99 96 1010.7
20260509225507 9 267 0.0 6.4 0.05 0.99 0.99 96 1010.7
20260509225006 9 82 1.6 6.4 0.08 0.99 0.99 96 1010.7
20260509224515 9 81 0.0 6.4 0.10 0.99 0.99 96 1010.6
20260509223510 9 182 1.6 9.7 0.13 0.99 0.99 96 1010.5
20260509222508 9 159 1.6 4.8 0.15 0.99 0.99 96 1010.6
20260509222010 9 138 1.6 11.3 0.15 0.99 0.99 96 1010.5
20260509221526 9 159 1.6 11.3 0.13 0.97 0.97 96 1010.7
20260509221005 9 184 0.0 3.2 0.13 0.97 0.97 96 1010.7
20260509220504 9 280 0.0 4.8 0.15 0.97 0.97 96 1010.8
20260509215511 9 219 1.6 4.8 0.15 0.94 0.94 96 1010.9
20260509215004 9 149 0.0 3.2 0.13 0.91 0.91 96 1010.8
20260509214515 8 102 0.0 3.2 0.13 0.89 0.89 96 1010.8
20260509213508 8 61 0.0 3.2 0.13 0.86 0.86 96 1010.8
20260509213020 8 120 0.0 3.2 0.15 0.86 0.86 96 1010.9
20260509212510 8 88 0.0 3.2 0.15 0.84 0.84 96 1011.0
20260509212010 9 96 0.0 3.2 0.15 0.84 0.84 96 1011.0
20260509211523 8 22 0.0 3.2 0.15 0.84 0.84 96 1011.0
20260509211010 9 22 0.0 3.2 0.18 0.84 0.84 96 1011.0
20260509210512 9 22 0.0 3.2 0.18 0.81 0.81 96 1011.1
20260509210028 9 22 0.0 3.2 0.18 0.81 0.81 96 1011.3
20260509205504 8 22 0.0 3.2 0.20 0.79 0.79 95 1011.3
20260509205006 9 22 0.0 3.2 0.23 0.79 0.79 96 1011.3